F5INV-13 Weather Reports


Display with metric or nautical units.
time (UTC)temp
F
wind
direction
speed
MPH
gust
MPH
rain 1hr
in
rain 24hr
in
rain mn
in
humidity
%
barometer
mb
20260504022005 58 85 1.0 5.0 0.00 0.09 0.00 94 1006.4
20260504021504 58 93 1.0 5.0 0.00 0.09 0.00 94 1006.4
20260504021005 58 101 3.0 9.0 0.00 0.09 0.00 94 1006.4
20260504020504 58 97 4.0 9.0 0.00 0.09 0.00 94 1006.4
20260504020005 58 92 4.0 8.0 0.00 0.09 0.00 94 1006.4
20260504015505 58 92 3.0 8.0 0.00 0.09 0.00 94 1006.4
20260504015004 58 91 2.0 8.0 0.00 0.09 0.00 94 1006.4
20260504014505 58 107 1.0 6.0 0.00 0.09 0.00 94 1006.4
20260504014004 58 96 2.0 7.0 0.00 0.09 0.00 94 1006.4
20260504013505 58 89 1.0 7.0 0.00 0.09 0.00 94 1006.4
20260504013004 58 84 1.0 7.0 0.00 0.09 0.00 94 1006.4
20260504012505 58 81 3.0 8.0 0.00 0.09 0.00 94 1006.4
20260504012004 58 90 4.0 9.0 0.00 0.09 0.00 94 1006.4
20260504011505 58 115 3.0 9.0 0.00 0.09 0.00 94 1006.4
20260504011005 58 106 2.0 8.0 0.00 0.09 0.00 94 1006.4
20260504010504 58 108 3.0 9.0 0.00 0.09 0.00 94 1006.4
20260504010005 58 120 3.0 9.0 0.00 0.09 0.00 94 1006.4
20260504005504 58 127 3.0 10.0 0.00 0.09 0.00 94 1006.4
20260504005005 58 125 5.0 11.0 0.00 0.09 0.00 94 1006.4
20260504004504 58 126 5.0 11.0 0.00 0.09 0.00 94 1006.4
20260504004004 58 123 4.0 12.0 0.00 0.09 0.00 94 1006.4
20260504003505 58 110 5.0 12.0 0.00 0.09 0.00 94 1006.4
20260504003004 58 115 4.0 9.0 0.00 0.09 0.00 94 1006.4
20260504002505 58 109 4.0 9.0 0.00 0.09 0.00 94 1006.4
20260504002004 58 115 5.0 9.0 0.00 0.09 0.00 94 1006.4
20260504001505 58 122 5.0 10.0 0.00 0.09 0.00 94 1006.4
20260504001005 58 109 5.0 10.0 0.00 0.09 0.00 94 1005.3
20260504000505 58 99 4.0 8.0 0.00 0.09 0.00 94 1005.3
20260504000004 58 107 4.0 8.0 0.00 0.09 0.00 94 1005.3
20260503235504 58 113 4.0 11.0 0.00 0.09 0.00 94 1006.4
20260503235005 58 115 5.0 11.0 0.00 0.09 0.00 94 1006.4
20260503234504 58 110 4.0 8.0 0.00 0.09 0.00 94 1006.4
20260503234005 58 105 4.0 8.0 0.00 0.09 0.00 94 1006.4
20260503233504 58 109 4.0 7.0 0.00 0.09 0.00 94 1006.4
20260503233004 58 114 4.0 7.0 0.00 0.09 0.00 94 1006.4
20260503232505 58 117 4.0 9.0 0.00 0.09 0.00 94 1006.4
20260503232004 58 119 4.0 9.0 0.00 0.09 0.00 94 1006.4
20260503231504 58 118 3.0 8.0 0.00 0.09 0.00 94 1006.4
20260503231005 58 110 4.0 9.0 0.00 0.09 0.00 94 1006.4
20260503230504 58 108 5.0 11.0 0.00 0.09 0.00 94 1006.4
20260503230005 58 103 6.0 11.0 0.00 0.09 0.00 94 1006.4
20260503225504 58 102 5.0 12.0 0.00 0.09 0.00 94 1006.4
20260503225005 58 95 4.0 12.0 0.00 0.09 0.00 94 1006.4
20260503224504 58 97 4.0 9.0 0.00 0.09 0.00 94 1006.4
20260503224005 58 104 3.0 9.0 0.00 0.09 0.00 94 1007.4
20260503223504 58 100 2.0 9.0 0.00 0.09 0.00 94 1007.4
20260503223004 58 82 2.0 8.0 0.00 0.09 0.00 94 1007.4
20260503222505 58 85 4.0 9.0 0.00 0.09 0.00 94 1007.4
20260503222005 58 90 4.0 12.0 0.00 0.09 0.00 93 1007.4
20260503221505 58 97 4.0 12.0 0.00 0.09 0.00 93 1007.4
20260503221004 58 92 3.0 11.0 0.04 0.09 0.00 93 1007.4
20260503220505 58 79 2.0 9.0 0.04 0.09 0.00 92 1007.4
20260503220009 58 79 2.0 8.0 0.04 0.09 0.00 92 1007.4
20260503215505 58 73 2.0 8.0 0.04 0.09 0.09 92 1007.4
20260503215005 58 71 2.0 8.0 0.04 0.09 0.09 92 1007.4
20260503214505 58 79 2.0 8.0 0.04 0.09 0.09 92 1007.4
20260503214004 58 82 1.0 7.0 0.04 0.09 0.09 92 1007.4
20260503213505 58 86 1.0 5.0 0.04 0.09 0.09 92 1007.4
20260503213005 58 78 1.0 5.0 0.04 0.09 0.09 91 1007.4
20260503212504 58 53 2.0 7.0 0.04 0.09 0.09 91 1006.4
20260503212005 58 47 3.0 8.0 0.04 0.09 0.09 91 1006.4
20260503211504 58 43 5.0 8.0 0.04 0.09 0.09 91 1006.4
20260503211004 58 34 6.0 10.0 0.05 0.05 0.05 91 1007.4
20260503210505 58 36 7.0 10.0 0.05 0.05 0.05 91 1007.4
20260503210005 58 40 5.0 10.0 0.05 0.05 0.05 91 1007.4
20260503205504 58 40 5.0 10.0 0.05 0.05 0.05 90 1007.4
20260503205005 59 42 7.0 10.0 0.05 0.05 0.05 90 1007.4
20260503204504 59 41 6.0 10.0 0.05 0.05 0.05 89 1007.4
20260503204004 59 36 3.0 8.0 0.05 0.05 0.05 89 1007.4
20260503203504 59 30 3.0 6.0 0.05 0.05 0.05 88 1007.4
20260503203005 59 35 3.0 6.0 0.05 0.05 0.05 88 1007.4
20260503202504 59 42 2.0 6.0 0.05 0.05 0.05 87 1007.4
20260503202004 59 26 2.0 6.0 0.05 0.05 0.05 87 1007.4
20260503201505 60 23 1.0 6.0 0.05 0.05 0.05 87 1007.4
20260503201004 60 22 0.0 3.0 0.00 0.00 0.00 86 1008.4
20260503200504 60 0 0.0 0.0 0.00 0.00 0.00 85 1008.4
20260503200005 60 0 0.0 0.0 0.00 0.00 0.00 85 1008.4
20260503195505 60 0 0.0 0.0 0.00 0.00 0.00 85 1007.4
20260503195005 60 0 0.0 0.0 0.00 0.00 0.00 85 1007.4
20260503194505 60 89 1.0 7.0 0.00 0.00 0.00 85 1007.4
20260503194004 64 80 1.0 7.0 0.00 0.00 0.00 68 1006.4
20260503193504 64 70 2.0 9.0 0.00 0.00 0.00 68 1006.4
20260503193005 64 67 3.0 9.0 0.00 0.00 0.00 68 1006.4
20260503192504 64 62 5.0 11.0 0.00 0.00 0.00 68 1006.4
20260503192004 64 78 7.0 11.0 0.00 0.00 0.00 68 1006.4
20260503191505 64 99 5.0 12.0 0.00 0.00 0.00 68 1006.4
20260503191004 64 109 7.0 19.0 0.00 0.00 0.00 68 1006.4
20260503190504 64 95 9.0 19.0 0.00 0.00 0.00 68 1006.4
20260503190005 64 91 8.0 19.0 0.00 0.00 0.00 68 1006.4
20260503185504 64 101 8.0 13.0 0.00 0.00 0.00 68 1006.4
20260503185005 64 102 9.0 13.0 0.00 0.00 0.00 68 1006.4
20260503184504 64 130 9.0 14.0 0.00 0.00 0.00 68 1006.4
20260503184005 64 123 9.0 16.0 0.00 0.00 0.00 68 1006.4
20260503183504 64 110 9.0 16.0 0.00 0.00 0.00 68 1006.4
20260503183005 64 118 10.0 24.0 0.00 0.00 0.00 68 1006.4
20260503182505 64 119 11.0 24.0 0.00 0.00 0.00 68 1006.4
20260503182006 64 109 10.0 15.0 0.00 0.00 0.00 68 1006.4
20260503181505 64 122 10.0 15.0 0.00 0.00 0.00 68 1006.4
20260503181005 64 118 9.0 15.0 0.00 0.00 0.00 68 1006.4
20260503180505 64 99 8.0 16.0 0.00 0.00 0.00 68 1006.4
20260503180005 64 97 8.0 16.0 0.00 0.00 0.00 68 1006.4
20260503175505 64 106 9.0 16.0 0.00 0.00 0.00 68 1006.4
20260503175004 64 139 11.0 16.0 0.00 0.00 0.00 68 1006.4
20260503174504 64 136 13.0 16.0 0.00 0.00 0.00 68 1006.4
20260503174005 64 142 12.0 16.0 0.00 0.00 0.00 68 1006.4
20260503173505 64 135 12.0 19.0 0.00 0.00 0.00 68 1006.4
20260503173005 64 122 12.0 22.0 0.00 0.00 0.00 68 1006.4
20260503172505 64 115 13.0 22.0 0.00 0.00 0.00 68 1006.4
20260503172004 64 90 12.0 20.0 0.00 0.00 0.00 68 1006.4
20260503171505 64 83 12.0 20.0 0.00 0.00 0.00 68 1006.4
20260503171005 64 87 12.0 19.0 0.00 0.00 0.00 68 1006.4
20260503170505 65 102 12.0 19.0 0.00 0.00 0.00 68 1006.4
20260503151005 70 87 13.0 22.0 0.00 0.00 0.00 59 1006.4
20260503150505 70 71 13.0 23.0 0.00 0.00 0.00 59 1006.4
20260503131005 74 114 12.0 20.0 0.00 0.00 0.00 50 1008.4
20260503130504 74 117 11.0 20.0 0.00 0.00 0.00 51 1008.4
20260503110505 72 83 6.0 18.0 0.00 0.00 0.00 56 1009.4
20260503090504 69 97 7.0 13.0 0.00 0.00 0.00 66 1009.4
20260503081505 65 116 9.0 18.0 0.00 0.00 0.00 76 1009.4
20260503081005 65 106 8.0 18.0 0.00 0.00 0.00 76 1009.4
20260503080504 65 107 7.0 15.0 0.00 0.00 0.00 76 1009.4
20260503072505 64 98 7.0 13.0 0.00 0.00 0.00 78 1009.4
20260503072005 64 106 8.0 14.0 0.00 0.00 0.00 78 1009.4
20260503071505 64 115 9.0 19.0 0.00 0.00 0.00 78 1009.4
20260503071005 63 120 9.0 19.0 0.00 0.00 0.00 79 1009.4
20260503070505 57 116 6.0 16.0 0.00 0.00 0.00 90 1009.4
20260503055003 57 149 1.0 6.0 0.00 0.00 0.00 90 1008.4
20260503054503 57 124 1.0 6.0 0.00 0.00 0.00 90 1008.4
20260503053503 57 95 1.0 6.0 0.00 0.00 0.00 90 1008.4
20260503053003 58 89 1.0 5.0 0.00 0.00 0.00 85 1008.4
20260503052503 58 95 1.0 5.0 0.00 0.00 0.00 85 1008.4
20260503052003 58 122 0.0 3.0 0.00 0.00 0.00 85 1008.4
20260503051503 58 135 0.0 3.0 0.00 0.00 0.00 85 1008.4
20260503051003 58 135 0.0 2.0 0.00 0.00 0.00 85 1008.4
20260503050504 58 135 0.0 2.0 0.00 0.00 0.00 85 1008.4
20260503050003 58 0 0.0 0.0 0.00 0.00 0.00 85 1008.4
20260503045503 58 0 0.0 0.0 0.00 0.00 0.00 85 1008.4
20260503045003 58 158 0.0 2.0 0.00 0.00 0.00 85 1008.4
20260503044503 58 158 0.0 2.0 0.00 0.00 0.00 85 1008.4
20260503044003 58 158 0.0 4.0 0.00 0.00 0.00 85 1008.4
20260503043503 58 158 0.0 4.0 0.00 0.00 0.00 85 1008.4
20260503043003 58 0 0.0 0.0 0.00 0.00 0.00 85 1008.4
20260503042503 58 0 0.0 0.0 0.00 0.00 0.00 85 1008.4
20260503042003 58 0 0.0 0.0 0.00 0.00 0.00 85 1008.4
20260503041503 58 0 0.0 0.0 0.00 0.00 0.00 85 1008.4
20260503041003 58 149 0.0 2.0 0.00 0.00 0.00 85 1008.4
20260503040503 58 144 0.0 5.0 0.00 0.00 0.00 85 1008.4
20260503040003 58 142 0.0 5.0 0.00 0.00 0.00 85 1008.4
20260503035503 58 0 0.0 0.0 0.00 0.00 0.00 85 1008.4
20260503035003 58 128 1.0 6.0 0.00 0.00 0.00 85 1008.4
20260503034503 58 124 2.0 8.0 0.00 0.00 0.00 85 1008.4
20260503034003 58 128 2.0 8.0 0.00 0.00 0.00 85 1008.4
20260503033503 58 137 1.0 5.0 0.00 0.00 0.00 85 1008.4
20260503033003 58 132 1.0 5.0 0.00 0.00 0.00 85 1008.4
20260503032503 58 133 0.0 5.0 0.00 0.00 0.00 85 1008.4
20260503032003 58 146 0.0 4.0 0.00 0.00 0.00 85 1008.4
20260503031503 58 87 0.0 4.0 0.00 0.00 0.00 85 1008.4
20260503031003 58 123 1.0 5.0 0.00 0.00 0.00 85 1008.4
20260503030503 58 117 3.0 8.0 0.00 0.00 0.00 85 1008.4
20260503030003 58 118 4.0 8.0 0.00 0.00 0.00 85 1008.4
20260503025504 58 124 4.0 8.0 0.00 0.00 0.00 85 1009.4
20260503025003 58 124 4.0 8.0 0.00 0.00 0.00 85 1009.4
20260503024503 58 127 2.0 8.0 0.00 0.00 0.00 85 1009.4
20260503024003 58 115 2.0 9.0 0.00 0.00 0.00 85 1008.4
20260503023503 58 111 3.0 9.0 0.00 0.00 0.00 85 1008.4
20260503023003 58 103 2.0 8.0 0.00 0.00 0.00 85 1008.4
20260503022503 58 94 2.0 6.0 0.00 0.00 0.00 85 1009.4